Stations météo

réclame
Mon MeteoGroup
Norrkoping, Suède (2574): Température de l'air & dewpoint: 11.12.2017 09:00:00 - 17.12.2017 09:00:00 (CET)Norrkoping, Suède (2574): Vitesse du vent & gusts: 11.12.2017 09:00:00 - 17.12.2017 09:00:00 (CET)Norrkoping, Suède (2574): Direction du vent: 11.12.2017 09:00:00 - 17.12.2017 09:00:00 (CET)Norrkoping, Suède (2574): reduced air pressure: 11.12.2017 09:00:00 - 17.12.2017 09:00:00 (CET)Norrkoping, Suède (2574): visibility: 11.12.2017 09:00:00 - 17.12.2017 09:00:00 (CET)Norrkoping, Suède (2574): Quantités de précipitations: 11.12.2017 09:00:00 - 17.12.2017 09:00:00 (CET)
Date & Time tt [°C] td [°C] ff [km/h] ff [knt] fx [km/h] fx [knt] dd ppp [hPa] vv [km] rr [mm]
17.12.2017 09:00:00 - - - - - - - - - -
17.12.2017 08:00:00 -5,5 -6,5 3 2 16 8 W 1013,3 50 0,0
17.12.2017 07:00:00 -4,7 -5,9 9 5 16 9 NW 1012,8 50 0,0
17.12.2017 06:00:00 -4,0 -5,4 8 4 16 9 WNW 1012,2 50 0,0
17.12.2017 05:00:00 -2,9 -4,0 6 4 17 9 WNW 1011,4 50 0,0
17.12.2017 04:00:00 -2,1 -3,5 9 5 17 9 NW 1011,0 50 0,0
17.12.2017 03:00:00 -1,5 -3,2 6 4 18 10 N 1010,0 50 0,0
17.12.2017 02:00:00 -0,8 -2,7 9 5 18 10 N 1009,4 50 0,0
17.12.2017 01:00:00 -0,5 -1,9 8 5 22 12 NNW 1008,6 50 0,0
17.12.2017 00:00:00 0,0 -1,4 9 5 23 12 N 1007,7 50 0,0
16.12.2017 23:00:00 0,4 -0,9 6 4 23 12 N 1006,8 49 0,0
16.12.2017 22:00:00 0,5 -0,5 11 6 23 12 N 1005,9 18 0,0
16.12.2017 21:00:00 0,7 -0,2 13 7 21 12 NNE 1005,1 17 0,0
16.12.2017 20:00:00 0,9 0,0 9 5 19 11 NNE 1004,1 20 0,0
16.12.2017 19:00:00 0,9 0,2 9 5 14 8 NNE 1003,2 22 0,1
16.12.2017 18:00:00 0,1 -0,2 0 0 6 4 N 1002,5 4,2 0,1
16.12.2017 17:00:00 0,0 -0,4 3 2 9 5 WNW 1001,6 5 0,1
16.12.2017 16:00:00 0,1 -0,5 3 2 6 3 WNW 1000,9 9 0,0
16.12.2017 15:00:00 0,5 -0,1 2 1 6 4 W 1000,3 13 0,0
16.12.2017 14:00:00 0,6 -0,3 0 0 6 3 N 999,6 17 0,0
16.12.2017 13:00:00 0,7 0,0 3 2 7 4 W 999,1 12 0,0
16.12.2017 12:00:00 0,4 -0,3 2 1 8 4 NW 998,5 11 0,0
16.12.2017 11:00:00 0,3 -0,4 3 2 7 4 SW 998,3 17 0,0
16.12.2017 10:00:00 0,0 -0,6 4 2 6 4 SW 997,6 14 0,0
16.12.2017 09:00:00 -0,3 -0,9 4 2 6 4 SSW 996,9 15 0,0
16.12.2017 08:00:00 -0,2 -0,5 3 2 6 4 SSW 996,4 8 0,0
16.12.2017 07:00:00 -0,2 -0,6 4 2 9 5 SW 996,0 6 0,0
16.12.2017 06:00:00 -0,1 -0,4 4 2 12 6 SW 995,6 3,8 0,4
16.12.2017 05:00:00 0,0 -0,4 7 4 12 6 WSW 995,1 3,6 0,0
16.12.2017 04:00:00 0,2 -0,4 7 4 13 7 SW 994,6 17 0,0
16.12.2017 03:00:00 0,1 -0,3 7 4 13 7 WSW 994,2 5 0,0
16.12.2017 02:00:00 0,2 -0,4 7 4 12 6 WSW 993,9 32 0,0
16.12.2017 01:00:00 -0,1 -0,8 5 3 10 5 WSW 993,7 45 0,0
16.12.2017 00:00:00 -0,2 -0,9 5 3 14 7 WSW 993,4 46 0,0
15.12.2017 23:00:00 0,1 -0,8 5 3 16 9 W 992,6 50 0,0
15.12.2017 22:00:00 0,5 -0,5 7 4 19 11 W 992,1 50 0,0
15.12.2017 21:00:00 0,8 -0,4 10 5 24 13 WSW 991,8 50 0,0
15.12.2017 20:00:00 0,8 -0,2 10 6 22 12 W 991,1 50 0,0
15.12.2017 19:00:00 0,8 -0,1 8 4 20 11 W 990,4 39 0,0
15.12.2017 18:00:00 0,8 0,1 8 5 21 11 W 989,7 40 0,0
15.12.2017 17:00:00 0,9 0,2 8 4 26 14 W 989,1 49 0,0
15.12.2017 16:00:00 1,0 0,3 8 5 23 12 W 988,3 23 0,0
15.12.2017 15:00:00 1,0 0,4 8 4 20 11 W 987,4 11 0,0
15.12.2017 14:00:00 1,0 0,4 10 5 26 14 W 986,5 7 0,0
15.12.2017 13:00:00 1,0 0,3 8 4 24 13 W 986,0 12 0,1
15.12.2017 12:00:00 1,2 0,5 9 5 21 12 W 985,5 14 0,0
15.12.2017 11:00:00 1,0 0,4 9 5 21 12 W 984,9 18 0,0
15.12.2017 10:00:00 1,1 0,5 11 6 22 12 W 984,2 9 0,0
15.12.2017 09:00:00 1,1 0,5 12 7 24 13 W 983,4 12 0,0
15.12.2017 08:00:00 0,9 0,5 7 4 18 10 W 982,8 9 0,0
15.12.2017 07:00:00 0,8 0,4 9 5 22 12 W 982,1 7 0,0
15.12.2017 06:00:00 0,8 0,4 10 5 22 12 W 981,4 13 0,0
15.12.2017 05:00:00 0,6 0,3 7 4 19 10 W 980,9 8 0,0
15.12.2017 04:00:00 0,4 0,1 7 4 14 8 WNW 980,4 4,2 0,1
15.12.2017 03:00:00 0,7 0,4 9 5 16 8 WNW 980,1 3,6 0,0
15.12.2017 02:00:00 0,8 0,5 7 4 12 7 WNW 979,8 10 0,1
15.12.2017 01:00:00 1,2 0,8 6 3 13 7 NW 979,5 14 0,1
15.12.2017 00:00:00 1,3 0,9 7 4 14 8 N 979,1 12 0,1
14.12.2017 23:00:00 1,3 0,9 7 4 15 8 N 978,8 13 0,3
14.12.2017 22:00:00 1,2 0,9 5 3 16 9 N 978,8 4,8 0,6
14.12.2017 21:00:00 1,4 1,1 6 4 12 6 N 978,8 4,9 0,3
14.12.2017 20:00:00 1,5 1,1 5 3 14 8 N 978,9 5 0,2
14.12.2017 19:00:00 1,9 1,6 4 2 13 7 ENE 979,2 3,7 0,2
14.12.2017 18:00:00 1,7 1,4 5 3 14 8 ENE 979,5 8 0,1
14.12.2017 17:00:00 1,8 1,5 6 3 16 8 ENE 979,9 3,2 0,4
14.12.2017 16:00:00 1,7 1,4 5 3 13 7 ENE 980,4 3,5 0,1
14.12.2017 15:00:00 1,6 1,3 5 3 11 6 ENE 980,8 6 0,0
14.12.2017 14:00:00 1,4 1,1 5 3 14 8 E 981,1 7 0,0
14.12.2017 13:00:00 1,5 1,1 5 3 14 8 ENE 981,5 8 0,0
14.12.2017 12:00:00 1,5 0,9 7 4 18 10 ESE 982,2 12 0,1
14.12.2017 11:00:00 1,4 0,7 9 5 21 12 ESE 982,6 12 0,2
14.12.2017 10:00:00 1,2 0,6 10 5 20 11 ESE 983,1 5 0,1
14.12.2017 09:00:00 1,2 0,6 10 5 18 10 SE 983,3 9 0,2
14.12.2017 08:00:00 0,9 0,3 9 5 20 11 ESE 983,6 6 0,4
14.12.2017 07:00:00 1,0 0,4 8 5 19 10 ESE 984,0 9 0,5
14.12.2017 06:00:00 1,1 0,4 11 6 21 11 ESE 984,6 9 0,3
14.12.2017 05:00:00 1,1 0,4 9 5 22 12 ESE 985,3 9 0,3
14.12.2017 04:00:00 1,3 0,6 12 6 22 12 ESE 985,9 8 0,3
14.12.2017 03:00:00 1,4 0,4 11 6 24 13 SE 986,9 8 0,4
14.12.2017 02:00:00 1,5 0,2 8 5 22 12 SE 987,7 12 0,1
14.12.2017 01:00:00 1,1 0,1 11 6 29 16 SE 988,6 10 0,3
14.12.2017 00:00:00 1,1 0,1 11 6 25 13 SE 989,4 6 0,1
13.12.2017 23:00:00 1,2 0,3 11 6 24 13 SSE 990,3 6 0,3
13.12.2017 22:00:00 1,4 0,4 10 6 20 11 SSE 991,1 23 0,5
13.12.2017 21:00:00 1,4 -0,2 9 5 18 10 SSE 991,9 14 0,0
13.12.2017 20:00:00 1,4 -0,7 10 5 24 13 SSE 992,8 37 0,0
13.12.2017 19:00:00 1,1 -1,1 12 7 25 13 SSE 993,4 39 0,0
13.12.2017 18:00:00 0,8 -1,3 9 5 24 13 SSE 994,1 38 0,0
13.12.2017 17:00:00 0,9 -1,3 10 5 26 14 SSE 994,9 40 0,0
13.12.2017 16:00:00 0,8 -1,4 11 6 26 14 S 995,9 33 0,0
13.12.2017 15:00:00 1,4 -0,7 10 5 29 16 SSW 996,2 35 0,0
13.12.2017 14:00:00 1,8 -0,2 13 7 34 18 SSW 996,5 45 0,0
13.12.2017 13:00:00 2,2 0,3 13 7 31 17 SSW 996,9 35 0,0
13.12.2017 12:00:00 2,2 0,4 16 9 29 16 SSW 997,1 36 0,0
13.12.2017 11:00:00 2,2 0,3 15 8 28 15 SW 997,4 28 0,0
13.12.2017 10:00:00 1,6 0,1 14 8 26 14 SSW 997,6 30 0,0
13.12.2017 09:00:00 0,5 -0,1 10 5 18 10 SSW 997,6 35 0,2
13.12.2017 08:00:00 -1,1 -1,4 6 3 16 8 S 997,7 3,1 0,6
13.12.2017 07:00:00 -2,0 -2,7 9 5 19 10 S 998,1 7 0,0
13.12.2017 06:00:00 -2,9 -4,2 7 4 16 9 SSW 998,4 50 0,0
13.12.2017 05:00:00 -4,3 -5,5 7 4 17 9 SSW 998,7 50 0,0
13.12.2017 04:00:00 -4,2 -5,3 9 5 16 8 SSW 999,0 50 0,0
13.12.2017 03:00:00 -3,5 -4,9 8 4 22 12 SW 999,3 50 0,0
13.12.2017 02:00:00 -2,2 -4,1 10 6 21 12 SW 999,1 50 0,0
13.12.2017 01:00:00 -2,2 -4,2 10 6 28 15 W 998,5 50 0,0
13.12.2017 00:00:00 -2,8 -4,4 9 5 21 11 WSW 998,1 50 0,0
12.12.2017 23:00:00 -3,5 -4,9 10 5 23 13 WSW 997,4 50 0,0
12.12.2017 22:00:00 -2,4 -4,0 10 5 27 15 W 996,9 50 0,0
12.12.2017 21:00:00 -2,1 -3,8 10 5 29 16 WNW 996,1 41 0,0
12.12.2017 20:00:00 -1,6 -3,5 14 8 27 15 NW 995,1 50 0,0
12.12.2017 19:00:00 -1,0 -2,9 16 9 30 16 NW 994,1 50 0,0
12.12.2017 18:00:00 -0,8 -2,4 13 7 29 15 WNW 992,9 29 0,0
12.12.2017 17:00:00 -0,4 -1,7 16 8 31 17 WNW 991,6 11 0,0
12.12.2017 16:00:00 0,1 -1,3 15 8 28 15 NW 990,0 12 0,0
12.12.2017 15:00:00 0,2 -1,1 12 6 26 14 NW 988,8 16 0,0
12.12.2017 14:00:00 0,4 -0,7 13 7 29 16 NNW 987,8 9 0,0
12.12.2017 13:00:00 0,4 -0,5 11 6 26 14 NNW 986,7 6 0,0
12.12.2017 12:00:00 0,5 -0,4 8 4 17 9 NW 986,5 19 0,0
12.12.2017 11:00:00 0,3 -0,3 6 4 14 7 NNW 986,9 12 0,1
12.12.2017 10:00:00 0,0 -0,4 5 3 14 7 NNW 987,0 2,4 0,6
12.12.2017 09:00:00 -0,1 -0,5 5 3 14 8 NNW 987,0 2,3 0,4
12.12.2017 08:00:00 -0,1 -0,5 8 4 16 8 N 987,1 3,7 0,5
12.12.2017 07:00:00 -0,2 -0,5 8 4 15 8 N 987,5 1,4 1,0
12.12.2017 06:00:00 -0,3 -0,6 7 4 17 9 NNE 988,2 1,3 1,1
12.12.2017 05:00:00 -0,3 -0,6 10 5 21 11 NNE 988,7 1,1 1,0
12.12.2017 04:00:00 -0,3 -0,6 12 7 23 13 NNE 989,2 1,8 0,5
12.12.2017 03:00:00 -0,3 -0,6 11 6 22 12 NNE 990,0 1,0 0,8
12.12.2017 02:00:00 -0,5 -0,8 11 6 20 11 NNE 991,1 1,6 0,8
12.12.2017 01:00:00 -0,6 -0,9 10 5 18 10 NNE 991,9 1,1 0,8
12.12.2017 00:00:00 -0,4 -0,8 10 5 18 10 NNE 992,3 1,3 0,5
11.12.2017 23:00:00 -0,1 -0,7 9 5 18 10 NNE 992,6 2,3 0,4
11.12.2017 22:00:00 0,6 -1,0 8 4 16 8 NE 993,5 4,3 0,1
11.12.2017 21:00:00 0,7 -1,4 6 4 18 10 NE 994,1 25 0,0
11.12.2017 20:00:00 0,7 -0,9 6 4 17 9 NE 993,9 20 0,0
11.12.2017 19:00:00 0,4 -0,9 6 3 13 7 NNE 993,5 16 0,0
11.12.2017 18:00:00 0,3 -1,1 6 4 13 7 NNE 994,4 15 0,0
11.12.2017 17:00:00 0,3 -0,8 8 4 15 8 NNE 994,0 12 0,0
11.12.2017 16:00:00 0,2 -0,8 7 4 14 7 NNE 993,9 14 0,0
11.12.2017 15:00:00 0,2 -0,7 6 3 16 9 NE 994,0 13 0,1
11.12.2017 14:00:00 0,3 -0,8 5 3 19 10 NNE 993,4 15 0,0
11.12.2017 13:00:00 0,6 -1,0 8 5 21 11 NE 993,1 16 0,0
11.12.2017 12:00:00 0,1 -0,8 9 5 18 10 NE 992,2 13 0,0
11.12.2017 11:00:00 -0,2 -1,3 5 3 14 8 NNE 993,2 18 0,0
11.12.2017 10:00:00 -0,2 -1,0 5 3 16 9 NE 993,1 21 0,0
11.12.2017 09:00:00 -0,6 -1,6 6 4 14 8 NE 992,6 29 0,0

tt = Température de l'air
td = dewpoint
ff = Vitesse du vent
fx = gusts
dd = Direction du vent
ppp = reduced air pressure
vv = visibility
rr = Quantités de précipitations

stations d'obs. à proximité